Location: Blangy-Tronville
(49.8790°N, 2.4226°E)
Time: 20:43:33
(UTC+00:00)

Cosmos 841 Rocket - Pass Details

Date: 18 November 2025
Orbit: 742 x 768 km, 74.0° (Epoch: 04 December)

Event Time Altitude Azimuth Distance (km) Brightness Sun altitude
Rises 17:25:38 0° 339° (NNW) 3,248 6.8 -13.2°
Reaches altitude 10° 17:28:09 10° 347° (NNW) 2,319 6.0 -13.6°
Maximum altitude 17:33:09 42° 58° (ENE) 1,096 3.9 -14.3°
Drops below altitude 10° 17:38:06 10° 129° (SE) 2,304 5.6 -15.1°
Enters shadow 17:38:53 - 132° (SE) 2,589 5.9 -15.2°
